[[{"header":{"parameterUnit":"m.s-1","parameterCategory":1,"la1":30.2991,"la2":30.254,"lo1":-89.0895,"lo2":-89.0444,"dy":0.0017,"dx":0.0017,"nx":28,"ny":28,"refTime":"2023-08-03T09:00:00:Z","depth":0,"parameterNumber":2,"parameterNumberName":"U-component_of_WINDS"},"data":[0,0,0,0,0,0,0,0,0,0,0,0,0,0,0,0,0,0,0,0,0,0,0,0,0,0,0,0,0,0,0,0,0,0,0,0,0,0,0,0,0,0,0,0,0,0,0,0,0,0,0,0,0,0,0,0,0,0,1.9922,1.9922,0,1.9914,1.9914,1.9914,1.9842,1.984,1.9839,1.9837,1.983,1.9832,1.9833,0,0,0,0,0,0,0,0,0,0,0,0,0,1.9876,1.9877,1.9922,1.9922,1.9922,1.9914,1.9914,1.9914,1.9843,1.984,1.9838,1.9836,1.983,1.9831,1.9833,0,0,0,0,0,0,0,0,0,0,0,0,0,1.9885,1.9878,1.9922,1.9885,1.9882,1.9914,1.9914,1.9914,1.9843,1.984,1.9838,1.9835,1.9829,1.9831,1.9833,1.9901,0,0,1.984,1.9841,0,0,0,0,0,0,0,0,1.9885,1.9887,1.9891,1.9888,1.9884,1.9876,1.9895,1.9909,1.9844,1.9858,1.9837,1.9834,1.9848,1.9848,1.9853,1.99,1.99,1.984,1.9842,1.9843,1.9843,0,0,0,0,0,0,0,1.9884,1.9887,1.9919,1.9891,1.9887,1.9869,1.9868,1.9898,1.9868,1.9856,1.9851,1.9851,1.9845,1.9851,1.9852,1.99,1.984,1.9842,1.9844,1.9845,2.0002,2.0005,0,0,0,0,0,0,1.9888,1.9887,1.9919,1.9918,1.9878,1.9872,1.987,1.9882,1.9867,1.9863,1.9853,1.9848,1.9848,1.9849,1.9851,1.9928,1.9843,1.9845,1.9846,1.9999,2.0003,2.0006,0,0,0,0,0,0,1.9888,1.9892,1.9919,1.9901,1.9903,1.9876,1.9889,1.9883,1.9888,1.9865,1.986,1.9864,1.9846,1.9848,1.9889,1.9927,1.9846,1.9848,1.9996,2.0,2.0004,2.0084,0,0,0,0,0,0,1.9887,1.9892,1.9917,1.9902,1.9905,1.9957,1.9891,1.9885,1.9892,1.9884,1.9874,1.9869,1.9844,1.9886,1.9891,1.9929,1.9849,1.9992,1.9998,2.0003,2.0077,2.009,2.0101,0,0,0,0,0,1.9885,1.994,1.9919,1.9923,1.9935,1.9959,1.996,1.993,1.9895,1.992,1.9906,1.987,1.9923,1.9891,1.9896,1.9935,1.999,1.9996,2.0002,2.0072,2.0088,2.0101,0,0,0,0,0,0,1.996,1.9937,1.9913,1.9965,1.9965,1.9947,1.9977,1.9947,1.9957,1.9949,1.9912,1.991,1.9956,1.995,1.9914,1.9999,1.995,1.9958,2.0001,2.0016,2.0027,2.0027,1.9851,0,0,0,0,0,1.9983,2.0004,1.9983,2.0031,2.0032,2.0005,2.0014,1.9991,1.9989,1.9988,1.9976,1.9976,1.9992,2.0004,2.0018,2.0077,2.0073,2.0106,2.0118,2.0128,2.0135,2.0165,2.0179,2.0027,2.0027,2.0027,0,0,2.003,2.002,2.0035,2.0046,2.0042,2.0065,2.0005,2.0032,2.0048,1.9992,2.0029,2.0021,2.0018,2.0068,2.0089,2.0064,2.0176,2.0136,2.0144,2.0145,2.0173,2.0187,2.02,2.0031,2.003,2.003,0,0,2.0126,2.0121,2.016,2.0158,2.0154,2.0136,2.0145,2.0132,2.0124,2.0161,2.0119,2.0139,2.0168,2.0168,2.0171,2.0269,2.0236,2.0274,2.0335,2.0365,2.0377,2.0387,2.0421,2.0434,2.0281,2.0282,2.0282,0,2.0185,2.0217,2.0184,2.0213,2.0218,2.0169,2.0208,2.0208,2.0209,2.0214,2.0186,2.0221,2.0216,2.0265,2.0288,2.0293,2.0303,2.0274,2.0378,2.0388,2.0397,2.0429,2.0442,2.0286,2.0286,2.0285,2.0285,0,2.0289,2.0312,2.0344,2.0345,2.0355,2.0389,2.0361,2.0375,2.0351,2.0336,2.0374,2.0366,2.0377,2.0387,2.0365,2.0433,2.0417,2.0385,2.0334,2.0417,2.0446,2.0458,2.0293,2.0291,2.029,2.0289,0,0,2.0431,2.0414,2.0426,2.0426,2.0418,2.0435,2.0468,2.0478,2.049,2.0493,2.0519,2.0545,2.0514,2.0519,2.0496,2.0522,2.0598,2.0485,2.0485,2.0506,2.0672,2.0696,2.0711,2.0577,2.058,2.0581,2.0672,0,2.0523,2.0575,2.0547,2.0604,2.0624,2.0579,2.0606,2.0605,2.0592,2.0608,2.0594,2.0613,2.0572,2.0574,2.0598,2.0584,2.0631,2.0577,2.06,2.0601,2.0601,2.0726,2.0751,2.0837,2.0683,2.0685,2.0687,0,2.0636,2.0643,2.0702,2.069,2.0698,2.0723,2.0731,2.0747,2.0744,2.0733,2.0738,2.0709,2.074,2.0691,2.0733,2.0697,2.0705,2.07,2.0703,2.0702,2.0648,2.0728,2.0864,2.0876,2.0704,2.0703,2.0702,0,2.0733,2.0757,2.0795,2.0797,2.0784,2.0803,2.0799,2.0794,2.0802,2.0809,2.0814,2.0825,2.083,2.0839,2.0814,2.0781,2.0859,2.0808,2.085,2.0851,2.0867,2.0866,2.1005,2.0875,2.0875,2.0875,2.0875,0,2.0837,2.0874,2.0838,2.0861,2.0902,2.087,2.0911,2.0902,2.0898,2.0919,2.0881,2.0901,2.0867,2.0884,2.0865,2.0902,2.0905,2.0897,2.0891,2.0899,2.09,2.0903,2.0896,2.0878,2.0877,2.0877,2.0876,0,2.095,2.0928,2.0966,2.0951,2.0948,2.0979,2.0966,2.0987,2.0972,2.0999,2.1004,2.0981,2.0999,2.0975,2.0991,2.0978,2.1029,2.1015,2.1029,2.1025,2.1067,2.1063,2.1211,2.1229,2.1089,2.1091,2.1092,0,2.1018,2.1045,2.1034,2.1045,2.1042,2.1061,2.1069,2.1039,2.1049,2.1048,2.107,2.1085,2.1095,2.1127,2.1111,2.1124,2.1109,2.116,2.111,2.1118,2.1108,2.1106,2.1108,2.1169,2.1171,2.1172,2.1174,0,2.1139,2.1127,2.1139,2.1149,2.116,2.1166,2.1169,2.118,2.1148,2.1162,2.118,2.1188,2.1204,2.122,2.1228,2.1224,2.1194,2.119,2.12,2.1208,2.1214,2.121,2.1055,2.1186,2.1185,2.1184,2.1183,2.1183,2.123,2.1253,2.1248,2.1263,2.1263,2.1267,2.1285,2.1273,2.1288,2.1298,2.128,2.1303,2.13,2.1308,2.1307,2.1325,2.1302,2.1317,2.1321,2.1325,2.133,2.1213,2.1326,2.1326,2.1326,2.1325,2.1325,0,2.1349,2.1343,2.1358,2.1364,2.1376,2.1347,2.1349,2.1362,2.1382,2.1382,2.1393,2.1414,2.1429,2.1415,2.1427,2.1444,2.143,2.1448,2.1445,2.1445,2.135,2.134,2.1459,2.1459,2.1459,2.1459,2.1458,2.1458,2.1411,2.1447,2.1434,2.147,2.1464,2.1486,2.1489,2.1493,2.1492,2.1517,2.1529,2.152,2.1515,2.1526,2.1539,2.1534,2.154,2.1563,2.1553,2.1465,2.1452,2.1439,2.1429,2.1564,2.1565,2.1646,2.1647,2.1647]},{"header":{"parameterUnit":"m.s-1","parameterCategory":1,"la1":30.2991,"la2":30.254,"lo1":-89.0895,"lo2":-89.0444,"dy":0.0017,"dx":0.0017,"nx":28,"ny":28,"refTime":"2023-08-03T09:00:00:Z","depth":0,"parameterNumber":3,"parameterNumberName":"V-component_of_WINDS"},"data":[0,0,0,0,0,0,0,0,0,0,0,0,0,0,0,0,0,0,0,0,0,0,0,0,0,0,0,0,0,0,0,0,0,0,0,0,0,0,0,0,0,0,0,0,0,0,0,0,0,0,0,0,0,0,0,0,0,0,-0.4943,-0.4943,0,-0.4917,-0.4917,-0.4916,-0.4911,-0.4911,-0.4911,-0.4911,-0.4884,-0.4884,-0.4883,0,0,0,0,0,0,0,0,0,0,0,0,0,-0.4988,-0.4988,-0.4943,-0.4943,-0.4943,-0.4917,-0.4917,-0.4916,-0.4911,-0.4911,-0.4911,-0.4911,-0.4885,-0.4884,-0.4883,0,0,0,0,0,0,0,0,0,0,0,0,0,-0.4966,-0.4987,-0.4943,-0.4937,-0.4936,-0.4917,-0.4917,-0.4916,-0.4911,-0.4911,-0.4911,-0.4911,-0.4885,-0.4884,-0.4882,-0.4868,0,0,-0.4878,-0.4878,0,0,0,0,0,0,0,0,-0.4967,-0.4964,-0.4938,-0.4937,-0.4936,-0.4917,-0.4923,-0.49,-0.4911,-0.492,-0.4911,-0.4912,-0.4895,-0.4893,-0.4887,-0.4867,-0.4866,-0.4878,-0.4877,-0.4877,-0.4877,0,0,0,0,0,0,0,-0.4969,-0.4966,-0.4933,-0.4938,-0.4936,-0.4935,-0.4932,-0.4918,-0.4906,-0.4919,-0.4919,-0.4916,-0.4895,-0.4889,-0.4887,-0.4866,-0.4878,-0.4877,-0.4876,-0.4876,-0.4832,-0.4832,0,0,0,0,0,0,-0.4972,-0.4967,-0.4934,-0.4932,-0.4953,-0.4934,-0.4931,-0.4923,-0.4907,-0.4904,-0.4916,-0.4916,-0.4891,-0.4888,-0.4886,-0.4868,-0.4877,-0.4876,-0.4875,-0.4833,-0.4832,-0.4832,0,0,0,0,0,0,-0.4973,-0.4969,-0.4935,-0.4949,-0.4945,-0.4933,-0.4924,-0.4922,-0.4916,-0.4904,-0.4902,-0.4912,-0.4891,-0.4888,-0.4873,-0.4867,-0.4875,-0.4874,-0.4833,-0.4833,-0.4832,-0.4833,0,0,0,0,0,0,-0.4974,-0.4969,-0.4964,-0.4949,-0.4944,-0.4922,-0.4924,-0.4922,-0.4914,-0.4914,-0.49,-0.4897,-0.4891,-0.4875,-0.4871,-0.4865,-0.4873,-0.4834,-0.4833,-0.4832,-0.4833,-0.4832,-0.4832,0,0,0,0,0,-0.4976,-0.4965,-0.4963,-0.4959,-0.4937,-0.4922,-0.4919,-0.4912,-0.4914,-0.4908,-0.49,-0.4898,-0.4868,-0.4873,-0.4869,-0.4863,-0.4834,-0.4833,-0.4832,-0.4834,-0.4833,-0.4832,0,0,0,0,0,0,-0.4979,-0.4963,-0.4961,-0.4946,-0.4935,-0.4921,-0.4914,-0.4911,-0.49,-0.49,-0.4892,-0.4888,-0.4874,-0.4867,-0.4873,-0.4848,-0.4851,-0.485,-0.4853,-0.4852,-0.4852,-0.4853,-0.4872,0,0,0,0,0,-0.4978,-0.4967,-0.4954,-0.4941,-0.4936,-0.4926,-0.4919,-0.4914,-0.4903,-0.4899,-0.4889,-0.4879,-0.4867,-0.4859,-0.4848,-0.4832,-0.4829,-0.4826,-0.4825,-0.4825,-0.4823,-0.4814,-0.4813,-0.4829,-0.4829,-0.4829,0,0,-0.4976,-0.4966,-0.4959,-0.4942,-0.4933,-0.4922,-0.4922,-0.491,-0.4902,-0.4897,-0.4882,-0.4875,-0.4862,-0.4847,-0.484,-0.4841,-0.4818,-0.4824,-0.4823,-0.4822,-0.4813,-0.4812,-0.481,-0.4829,-0.4829,-0.4829,0,0,-0.4966,-0.4958,-0.4946,-0.4937,-0.4924,-0.4917,-0.4915,-0.4901,-0.4896,-0.4881,-0.4877,-0.4867,-0.4847,-0.4838,-0.4831,-0.4817,-0.4815,-0.4814,-0.481,-0.4801,-0.48,-0.4798,-0.4793,-0.4792,-0.4813,-0.4813,-0.4813,0,-0.4965,-0.4948,-0.4941,-0.4929,-0.4921,-0.4916,-0.4904,-0.4896,-0.488,-0.4875,-0.4876,-0.4851,-0.4842,-0.4824,-0.4821,-0.4816,-0.4812,-0.4815,-0.48,-0.4799,-0.4798,-0.4793,-0.4791,-0.4812,-0.4812,-0.4812,-0.4812,0,-0.4947,-0.4935,-0.4928,-0.4912,-0.4903,-0.4892,-0.4882,-0.4875,-0.4871,-0.4864,-0.4848,-0.4838,-0.4824,-0.4819,-0.4816,-0.4801,-0.4802,-0.4802,-0.4805,-0.4796,-0.4792,-0.479,-0.4812,-0.4812,-0.4812,-0.4812,0,0,-0.4939,-0.4919,-0.4917,-0.4909,-0.4894,-0.4885,-0.4873,-0.4859,-0.4853,-0.4842,-0.4831,-0.4814,-0.4814,-0.4806,-0.4801,-0.4794,-0.4783,-0.4794,-0.4794,-0.4793,-0.4767,-0.4767,-0.4765,-0.4782,-0.4781,-0.4781,-0.4768,0,-0.4928,-0.4906,-0.4899,-0.4881,-0.4869,-0.4864,-0.4854,-0.4843,-0.4837,-0.4826,-0.4818,-0.4806,-0.4807,-0.4802,-0.4795,-0.4786,-0.4778,-0.4787,-0.4772,-0.4771,-0.4775,-0.4762,-0.4762,-0.475,-0.4766,-0.4765,-0.4765,0,-0.4911,-0.4899,-0.488,-0.4866,-0.4861,-0.4852,-0.4839,-0.4829,-0.4817,-0.4812,-0.4803,-0.4799,-0.4786,-0.4789,-0.4771,-0.4778,-0.4771,-0.4766,-0.4766,-0.4764,-0.4768,-0.476,-0.4746,-0.4744,-0.4762,-0.4762,-0.4763,0,-0.4907,-0.4886,-0.4872,-0.4866,-0.485,-0.4843,-0.4836,-0.4824,-0.4816,-0.4805,-0.48,-0.4787,-0.478,-0.477,-0.4762,-0.4766,-0.4745,-0.4748,-0.4741,-0.4741,-0.4737,-0.4737,-0.4721,-0.4733,-0.4733,-0.4733,-0.4733,0,-0.4894,-0.4883,-0.487,-0.4861,-0.4848,-0.484,-0.4827,-0.4819,-0.4809,-0.4799,-0.4794,-0.4784,-0.4775,-0.4764,-0.4758,-0.4744,-0.4741,-0.4737,-0.4735,-0.4737,-0.4737,-0.4732,-0.4733,-0.4732,-0.4732,-0.4732,-0.4733,0,-0.4887,-0.4878,-0.4862,-0.4848,-0.4844,-0.4835,-0.4823,-0.4814,-0.4807,-0.4794,-0.479,-0.4779,-0.4766,-0.4757,-0.4741,-0.4737,-0.4721,-0.472,-0.4725,-0.4724,-0.4718,-0.4719,-0.4698,-0.4695,-0.4709,-0.4709,-0.4709,0,-0.488,-0.4871,-0.4855,-0.4848,-0.4841,-0.4829,-0.4821,-0.4812,-0.4804,-0.479,-0.4783,-0.4769,-0.4758,-0.4737,-0.4728,-0.4715,-0.4713,-0.4707,-0.4711,-0.4714,-0.4713,-0.4714,-0.4713,-0.4706,-0.4706,-0.4706,-0.4706,0,-0.4868,-0.4864,-0.4852,-0.4839,-0.4829,-0.4818,-0.4808,-0.4802,-0.4792,-0.4783,-0.4769,-0.476,-0.4743,-0.473,-0.4716,-0.4709,-0.4706,-0.4705,-0.4703,-0.4704,-0.4708,-0.4706,-0.4723,-0.4705,-0.4705,-0.4706,-0.4706,-0.4706,-0.486,-0.4852,-0.4839,-0.4826,-0.4817,-0.4807,-0.4798,-0.479,-0.4779,-0.4764,-0.476,-0.4745,-0.4734,-0.4715,-0.4707,-0.4696,-0.4697,-0.4693,-0.4692,-0.4692,-0.4692,-0.4709,-0.4693,-0.4693,-0.4693,-0.4694,-0.4694,0,-0.4847,-0.4839,-0.4827,-0.4812,-0.4802,-0.48,-0.4788,-0.478,-0.4767,-0.4756,-0.4745,-0.473,-0.4717,-0.4706,-0.4693,-0.4686,-0.4684,-0.4682,-0.4683,-0.4681,-0.4692,-0.4695,-0.4684,-0.4684,-0.4684,-0.4684,-0.4684,-0.4684,-0.484,-0.4825,-0.482,-0.48,-0.4792,-0.4778,-0.4771,-0.4762,-0.4753,-0.4736,-0.4725,-0.4718,-0.4707,-0.4693,-0.4681,-0.4678,-0.4673,-0.4672,-0.4669,-0.4679,-0.468,-0.4681,-0.4684,-0.4671,-0.4671,-0.4659,-0.4659,-0.4659]}]]